Wind_Speed
14 14 14 13 13 13 13 13 13 13 13 13 12 12 12 12 11 11 11 11 10 10 10 10 9 9 8 7 7 6 6 5 5 6 7 7 7 8 8 8 9 10 10
15 15 15 14 14 14 14 13 13 14 14 13 13 12 12 11 11 11 11 11 11 11 10 10 10 9 9 9 7 7 7 6 6 6 7 7 8 8 9 10 10 10 10
15 16 15 15 15 15 15 15 15 15 15 14 14 13 13 12 12 12 12 12 11 10 9 8 9 9 9 9 9 8 8 8 7 7 8 8 8 8 8 9 10 11 11
15 15 16 15 15 15 16 16 17 17 16 15 15 14 14 13 12 11 11 11 10 9 9 9 8 9 9 9 9 9 9 9 10 9 9 9 9 9 8 9 9 9 9
16 16 15 15 15 16 16 17 17 18 17 16 16 15 14 13 12 11 11 11 11 11 10 9 9 9 10 10 10 10 10 10 10 10 10 11 10 10 9 9 10 10 9
17 16 16 16 16 16 16 17 17 18 18 18 17 17 15 14 13 13 12 12 12 12 11 10 10 10 11 11 11 11 11 11 12 11 11 11 11 11 11 11 10 11 11
16 16 16 16 16 17 17 18 18 19 18 18 19 18 17 15 15 15 14 13 13 12 12 12 11 11 12 12 12 13 13 13 13 13 13 12 12 12 12 11 11 12 12
16 16 16 16 17 18 18 19 20 19 19 18 18 18 18 17 17 16 15 15 15 14 13 13 13 12 13 13 14 13 14 14 13 14 14 14 13 13 13 13 13 14 14
17 17 17 17 18 19 20 20 20 19 20 19 19 18 18 18 17 17 17 16 16 15 15 14 14 14 13 14 14 15 15 15 15 14 14 15 15 15 15 16 15 15 16
18 18 19 19 20 21 21 20 20 20 20 20 19 19 19 19 19 19 19 18 17 17 17 16 15 15 14 15 15 15 16 17 17 16 15 15 16 16 16 16 17 17 17
18 19 20 20 21 22 22 21 20 20 20 20 19 19 20 20 20 20 21 20 19 19 19 18 17 17 16 15 15 16 16 17 18 17 16 16 16 16 17 17 18 18 18
19 19 20 20 21 22 21 21 20 20 20 20 19 20 20 21 20 20 20 20 20 20 20 19 18 18 18 17 17 17 17 18 18 18 18 18 18 17 18 18 18 19 19
20 20 20 21 21 21 21 21 20 21 21 20 21 21 21 21 21 21 20 19 19 20 20 20 19 19 19 19 18 18 18 19 19 19 19 19 19 18 18 19 19 19 19
21 21 21 22 21 21 21 21 21 20 21 21 21 21 21 20 19 19 20 20 20 20 21 21 21 20 20 20 19 19 19 20 20 20 20 20 20 20 20 20 20 20 20
22 22 22 22 22 22 22 22 21 21 21 21 21 21 21 20 19 19 19 19 20 21 20 21 21 21 21 21 20 20 20 20 20 20 21 21 21 21 21 21 21 21 21
22 22 22 21 21 21 21 21 21 21 21 20 20 21 21 20 19 19 20 20 20 20 21 21 21 21 21 21 21 21 21 21 21 22 22 22 23 22 23 23 23 22 23
22 22 21 22 22 22 22 21 21 21 20 20 20 21 21 20 20 20 20 20 20 20 21 21 22 22 21 21 22 22 22 22 22 23 23 23 24 24 24 24 24 24 24
21 21 21 22 22 22 23 22 21 21 21 21 21 21 21 21 20 20 21 20 20 20 20 20 21 22 23 23 23 23 23 23 23 24 25 24 24 24 24 25 25 25 25
20 21 22 22 22 22 22 22 21 21 22 22 21 21 21 21 21 21 20 20 20 20 20 20 21 22 22 22 23 23 24 24 24 24 25 25 25 25 25 25 26 25 25
21 22 22 22 22 22 23 23 23 23 22 22 22 22 22 22 22 21 21 20 20 20 20 21 21 21 21 21 22 22 23 24 24 25 25 25 25 25 25 25 25 25 26
22 22 22 22 22 22 22 22 22 22 22 22 22 21 20 21 21 21 21 20 20 20 21 21 21 21 21 21 21 22 22 22 23 24 25 25 25 26 25 25 26 26 26
23 23 23 22 22 22 23 22 22 22 21 21 20 20 20 20 20 20 20 20 20 21 21 21 21 21 21 21 21 22 22 22 23 24 25 25 25 25 26 27 27 27 27
23 23 22 21 21 21 22 22 22 22 21 21 21 20 20 20 20 20 21 21 21 22 22 22 21 21 21 22 22 22 22 23 23 24 25 25 25 26 27 28 28 28 28
22 22 22 21 22 21 21 21 22 22 22 21 21 21 21 21 21 20 21 20 20 20 21 21 21 21 21 22 22 22 23 24 24 24 25 25 25 26 26 26 25 26 27
23 22 22 22 22 22 21 21 21 21 21 21 22 22 21 21 21 20 20 19 20 20 19 19 20 20 20 21 22 22 23 24 24 25 25 25 25 26 26 26 26 26 27
23 23 23 22 22 21 21 20 21 21 21 21 21 21 21 20 20 19 19 19 20 20 20 20 20 20 20 21 22 23 23 24 24 24 24 25 25 26 26 26 26 26 27
Wind_Direction
291 294 292 295 297 297 298 298 300 298 299 300 295 287 287 288 286 292 284 281 280 278 278 276 269 268 263 255 250 248 248 247 238 230 227 224 228 222 222 220 219 217 215
288 290 290 292 294 294 295 295 295 296 294 294 290 282 282 285 287 287 283 282 280 289 286 269 263 262 259 256 248 243 241 239 238 236 232 227 230 228 221 220 221 222 221
287 288 290 292 291 290 290 291 294 295 288 288 286 281 282 280 281 282 281 281 281 289 285 275 264 259 259 259 247 242 240 237 236 240 239 238 238 232 231 225 222 223 226
286 286 288 289 288 288 289 289 292 293 288 287 289 285 279 278 282 279 281 280 278 282 284 270 262 258 257 255 247 246 243 240 238 241 238 239 243 238 241 237 232 231 229
284 284 285 286 285 286 289 290 290 291 289 287 285 285 280 276 278 281 281 279 277 279 276 269 262 257 257 258 255 252 247 246 244 242 239 239 240 241 243 243 240 238 238
281 281 281 284 286 287 290 292 292 290 287 285 282 280 278 276 277 276 280 281 280 275 269 266 262 259 260 260 257 256 255 249 247 246 245 244 242 242 245 248 243 240 242
282 281 281 283 286 289 291 290 291 290 286 284 280 278 275 275 277 278 280 282 281 276 273 270 267 262 261 260 260 258 257 253 249 247 249 249 248 244 243 245 245 245 247
282 282 281 283 287 291 292 293 293 291 286 285 282 278 276 276 276 277 278 277 277 276 274 274 272 266 263 262 263 263 259 256 254 251 250 250 248 245 244 247 250 250 251
279 280 281 284 287 290 291 292 293 292 290 287 282 278 279 277 274 272 272 273 273 272 273 275 275 269 267 265 266 265 261 258 256 253 248 249 248 249 250 250 250 252 253
277 279 280 282 285 287 288 291 293 291 290 288 285 281 280 277 272 271 270 268 269 269 269 270 272 270 269 266 267 267 262 259 258 256 250 249 249 252 255 254 253 255 258
278 278 280 281 284 286 288 290 291 291 288 286 281 281 281 278 275 269 267 265 267 267 267 269 269 270 271 272 270 266 262 260 259 256 255 254 254 255 258 260 259 257 259
277 278 279 282 284 286 288 290 290 289 289 285 283 282 282 279 273 272 269 265 265 265 266 268 268 269 270 272 271 268 264 262 260 256 254 255 257 259 258 261 262 261 259
276 277 277 281 284 286 287 290 290 288 287 285 285 285 285 281 275 272 268 266 265 265 266 266 266 266 267 269 270 268 264 262 261 259 257 257 258 262 261 262 263 264 264
277 278 280 281 283 284 285 286 287 287 286 287 286 287 287 284 278 272 266 264 264 265 264 264 264 264 265 267 268 267 266 263 262 260 260 259 258 261 264 265 264 265 266
276 277 279 282 282 281 282 283 285 285 286 286 286 287 288 285 280 276 271 268 265 263 264 264 264 264 265 266 266 266 266 263 261 260 261 262 261 260 264 265 266 267 268
276 277 279 281 280 280 280 282 283 286 287 287 285 286 287 283 280 277 273 270 267 265 264 264 264 264 266 266 266 266 266 264 264 263 263 263 263 263 263 264 265 266 268
274 275 277 278 278 278 279 281 283 284 285 285 284 285 285 282 277 275 272 269 267 265 265 265 265 266 267 268 267 266 266 264 264 264 265 264 264 265 265 266 266 266 266
274 275 275 275 275 275 275 277 279 282 283 282 282 284 285 283 280 275 272 268 267 265 267 268 268 267 267 268 266 266 268 267 265 264 263 263 265 265 266 268 268 268 267
273 275 275 274 275 275 276 278 280 282 282 282 281 281 284 283 279 276 271 268 267 267 268 270 271 269 268 267 266 265 265 267 267 266 265 265 265 265 266 268 268 268 268
273 274 274 273 274 274 275 278 279 281 281 281 279 280 280 279 279 278 275 272 270 268 268 271 272 270 267 266 266 265 265 267 268 269 268 267 266 265 265 266 266 267 267
273 273 274 274 273 273 274 277 278 279 280 282 282 280 280 277 276 276 275 273 272 270 269 270 271 269 265 263 263 265 266 266 268 269 269 267 266 265 266 268 268 267 267
273 273 274 274 273 273 274 275 277 278 278 280 280 279 279 277 276 275 274 273 272 271 270 269 269 270 266 262 263 265 266 267 268 269 269 268 268 269 268 269 269 267 268
274 273 272 274 274 274 272 274 277 276 276 277 277 277 277 278 278 277 276 274 271 271 270 268 269 269 269 266 263 264 266 267 268 269 271 271 271 272 272 272 270 268 268
273 274 274 274 274 275 275 275 275 275 276 276 277 278 277 277 277 277 276 276 273 272 271 269 270 269 270 267 266 266 267 268 270 271 270 270 272 274 273 271 270 270 269
272 273 273 274 274 275 274 274 272 273 274 276 277 277 276 276 275 274 273 273 274 273 273 272 271 270 271 270 270 270 272 273 274 274 274 273 274 275 274 273 273 272 272
271 271 271 272 274 273 272 273 273 273 274 275 276 276 275 275 273 272 272 271 272 272 272 273 274 274 273 271 270 272 274 275 276 275 274 275 275 275 275 275 274 274 274
Height
5886 5884 5883 5882 5880 5878 5877 5876 5874 5872 5870 5869 5867 5866 5864 5864 5863 5861 5860 5859 5859 5857 5856 5856 5855 5855 5855 5855 5855 5855 5855 5854 5854 5854 5855 5855 5856 5857 5858 5858 5859 5860 5861
5883 5882 5880 5879 5877 5876 5874 5873 5871 5869 5868 5866 5864 5863 5862 5861 5860 5859 5858 5857 5856 5855 5854 5853 5853 5853 5853 5854 5853 5853 5854 5854 5854 5854 5854 5855 5856 5855 5856 5857 5858 5859 5860
5880 5878 5877 5876 5874 5873 5871 5870 5868 5866 5865 5863 5861 5860 5859 5857 5856 5856 5855 5854 5853 5852 5851 5851 5851 5851 5851 5852 5851 5852 5852 5852 5853 5853 5854 5854 5854 5855 5855 5855 5856 5857 5858
5876 5875 5874 5872 5871 5869 5868 5866 5865 5863 5861 5860 5859 5857 5855 5854 5853 5852 5852 5851 5850 5849 5849 5848 5848 5849 5849 5850 5850 5850 5850 5851 5851 5852 5852 5853 5853 5853 5854 5854 5855 5855 5857
5872 5871 5870 5869 5867 5866 5864 5863 5861 5860 5858 5857 5855 5854 5852 5851 5850 5849 5849 5848 5847 5847 5846 5846 5846 5846 5847 5847 5847 5848 5848 5848 5849 5850 5850 5850 5851 5852 5852 5853 5853 5854 5855
5868 5867 5866 5865 5863 5862 5861 5859 5858 5856 5854 5853 5851 5850 5849 5848 5847 5846 5846 5845 5844 5843 5844 5844 5844 5844 5844 5844 5845 5845 5845 5846 5847 5847 5848 5848 5849 5849 5850 5851 5851 5852 5853
5864 5863 5862 5861 5860 5858 5857 5855 5853 5851 5850 5849 5847 5846 5845 5844 5843 5843 5842 5842 5841 5841 5841 5841 5840 5840 5841 5841 5842 5842 5842 5843 5843 5844 5845 5846 5846 5847 5848 5848 5849 5850 5851
5860 5859 5858 5856 5855 5854 5852 5850 5848 5847 5845 5844 5842 5841 5841 5840 5839 5839 5839 5838 5838 5838 5838 5838 5837 5837 5837 5838 5838 5839 5839 5839 5840 5841 5841 5842 5843 5844 5845 5845 5846 5847 5847
5856 5855 5853 5852 5851 5849 5847 5846 5843 5842 5840 5839 5838 5837 5836 5835 5835 5834 5834 5834 5834 5834 5834 5834 5834 5834 5834 5834 5835 5835 5835 5836 5837 5837 5838 5839 5840 5841 5841 5842 5843 5844 5844
5851 5850 5849 5847 5846 5844 5843 5841 5839 5838 5836 5834 5833 5832 5831 5830 5830 5830 5829 5829 5830 5830 5830 5830 5830 5830 5830 5830 5831 5831 5831 5832 5833 5833 5834 5835 5836 5837 5837 5838 5839 5840 5840
5845 5844 5843 5842 5840 5839 5838 5836 5834 5833 5831 5830 5828 5827 5826 5825 5824 5824 5824 5824 5824 5825 5825 5825 5826 5826 5826 5826 5826 5826 5827 5827 5828 5829 5830 5831 5832 5832 5833 5834 5834 5835 5836
5840 5839 5838 5836 5835 5833 5832 5831 5829 5827 5826 5824 5823 5821 5820 5819 5818 5818 5818 5818 5819 5819 5820 5820 5821 5821 5821 5821 5822 5822 5822 5823 5824 5824 5825 5826 5827 5828 5829 5829 5830 5830 5830
5834 5833 5832 5831 5829 5828 5826 5825 5824 5822 5820 5819 5817 5816 5814 5813 5812 5812 5812 5812 5813 5813 5814 5815 5815 5816 5816 5816 5817 5817 5818 5818 5819 5819 5820 5821 5822 5823 5824 5824 5825 5825 5825
5828 5827 5826 5825 5824 5822 5821 5819 5818 5817 5815 5813 5812 5810 5809 5807 5806 5805 5805 5806 5807 5807 5808 5809 5810 5810 5811 5811 5811 5812 5812 5813 5814 5814 5815 5816 5817 5818 5819 5819 5819 5819 5820
5822 5821 5820 5819 5818 5816 5815 5814 5813 5811 5809 5808 5806 5805 5803 5802 5800 5800 5800 5800 5801 5802 5802 5803 5804 5804 5805 5805 5806 5806 5807 5807 5808 5809 5810 5810 5811 5812 5813 5814 5814 5814 5814
5816 5815 5814 5813 5812 5811 5810 5808 5807 5805 5804 5802 5801 5799 5798 5796 5795 5794 5794 5795 5795 5795 5796 5797 5798 5798 5799 5799 5800 5801 5801 5801 5802 5803 5803 5804 5805 5806 5807 5808 5808 5808 5808
5810 5809 5808 5807 5806 5805 5804 5802 5801 5800 5798 5797 5795 5794 5793 5791 5790 5789 5789 5789 5789 5789 5790 5791 5791 5792 5793 5793 5794 5794 5795 5795 5796 5796 5797 5798 5798 5799 5800 5801 5801 5801 5801
5803 5802 5802 5801 5800 5798 5797 5796 5795 5794 5793 5791 5790 5789 5787 5786 5785 5784 5784 5783 5783 5783 5784 5784 5784 5785 5786 5786 5787 5787 5788 5788 5789 5790 5790 5791 5791 5792 5793 5793 5793 5794 5794
5796 5796 5795 5794 5793 5792 5791 5790 5789 5788 5787 5786 5784 5783 5782 5781 5779 5778 5778 5777 5777 5778 5778 5778 5778 5778 5779 5779 5780 5780 5781 5781 5782 5782 5783 5783 5784 5785 5785 5786 5786 5786 5786
5790 5789 5788 5787 5786 5786 5785 5784 5783 5782 5781 5780 5778 5777 5776 5775 5774 5773 5772 5772 5771 5771 5772 5772 5771 5771 5772 5772 5773 5773 5773 5774 5775 5775 5775 5776 5777 5777 5777 5778 5778 5779 5779
5783 5782 5781 5780 5780 5779 5779 5778 5777 5776 5775 5773 5772 5771 5770 5769 5768 5767 5767 5766 5765 5765 5765 5765 5765 5765 5765 5766 5766 5767 5767 5767 5768 5768 5768 5768 5769 5769 5769 5770 5770 5770 5770
5776 5775 5774 5774 5773 5773 5772 5772 5771 5770 5769 5768 5766 5765 5764 5763 5763 5762 5761 5760 5760 5759 5759 5759 5758 5758 5758 5759 5759 5760 5761 5761 5761 5761 5761 5761 5761 5761 5761 5761 5762 5762 5762
5768 5768 5767 5767 5767 5766 5766 5765 5764 5763 5762 5762 5761 5759 5759 5758 5757 5756 5755 5754 5754 5753 5753 5752 5752 5752 5751 5752 5752 5753 5754 5754 5754 5754 5754 5754 5754 5753 5753 5753 5753 5753 5753
5761 5761 5761 5760 5760 5760 5759 5759 5758 5757 5756 5756 5755 5754 5753 5752 5751 5750 5749 5748 5747 5747 5746 5746 5745 5745 5745 5745 5745 5746 5746 5746 5746 5746 5746 5746 5745 5745 5745 5745 5744 5744 5744
5755 5755 5754 5754 5754 5753 5753 5752 5752 5751 5750 5749 5748 5747 5746 5745 5744 5744 5743 5742 5741 5741 5741 5740 5740 5739 5739 5739 5739 5739 5739 5739 5739 5738 5738 5738 5738 5737 5737 5737 5736 5736 5735
5748 5748 5747 5747 5747 5746 5746 5746 5745 5745 5744 5743 5742 5741 5740 5739 5738 5737 5737 5736 5736 5735 5734 5734 5733 5733 5733 5733 5732 5732 5732 5731 5731 5731 5730 5730 5729 5729 5729 5728 5727 5727 5727